EW4608 Weather Reports


time (UTC)temp
C
wind
direction
speed
KPH
gust
KPH
rain 1hr
cm
rain 24hr
cm
rain mn
cm
humidity
%
barometer
mb
20220124111541 -5 158 4.8 6.4 0.00 0.00 0.00 79 1012.1
20220124110028 -5 141 3.2 8.0 0.00 0.00 0.00 79 1012.5
20220124104543 -5 168 3.2 4.8 0.00 0.00 0.00 79 1013.0
20220124103039 -5 129 1.6 4.8 0.00 0.00 0.00 79 1013.2
20220124101522 -5 159 1.6 8.0 0.00 0.00 0.00 79 1013.4
20220124100032 -5 187 1.6 9.7 0.00 0.00 0.00 79 1013.7
20220124094521 -5 150 3.2 11.3 0.00 0.00 0.00 79 1013.5
20220124093012 -6 152 1.6 8.0 0.00 0.00 0.00 79 1013.9
20220124091531 -6 142 3.2 6.4 0.00 0.00 0.00 80 1014.0
20220124090018 -6 125 1.6 8.0 0.00 0.00 0.00 81 1014.3
20220124084512 -6 202 0.0 0.0 0.00 0.00 0.00 81 1014.7
20220124083005 -7 233 0.0 0.0 0.00 0.00 0.00 81 1015.0
20220124081520 -7 233 0.0 0.0 0.00 0.00 0.00 81 1015.1
20220124080003 -7 137 0.0 0.0 0.00 0.00 0.00 81 1015.0
20220124074715 -7 137 0.0 0.0 0.00 0.00 0.00 80 1015.0
20220124073131 -6 141 0.0 0.0 0.00 0.00 0.00 81 1015.2
20220124071651 -7 114 0.0 1.6 0.00 0.00 0.00 81 1015.2
20220124070302 -7 108 0.0 0.0 0.00 0.00 0.00 81 1015.6
20220124064641 -6 108 0.0 0.0 0.00 0.00 0.00 80 1015.4
20220124063143 -6 108 0.0 0.0 0.00 0.00 0.00 80 1015.7
20220124061613 -6 108 0.0 0.0 0.00 0.00 0.00 80 1015.7
20220124060113 -6 108 0.0 0.0 0.00 0.00 0.00 80 1016.1
20220124054632 -6 108 0.0 0.0 0.00 0.00 0.00 79 1016.5
20220124053114 -6 108 0.0 0.0 0.00 0.00 0.00 79 1016.5
20220124051551 -6 108 0.0 0.0 0.00 0.00 0.00 79 1016.7
20220124050046 -6 108 0.0 0.0 0.00 0.00 0.00 78 1016.7
20220124044554 -6 108 0.0 0.0 0.00 0.00 0.00 77 1016.7
20220124043202 -6 108 0.0 0.0 0.00 0.00 0.00 78 1016.8
20220124041826 -6 108 0.0 3.2 0.00 0.00 0.00 78 1016.7
20220124040147 -5 44 0.0 0.0 0.00 0.00 0.00 75 1016.9
20220124034537 -5 44 0.0 4.8 0.00 0.00 0.00 76 1017.1
20220124033117 -5 358 0.0 3.2 0.00 0.00 0.00 77 1017.1
20220124031537 -5 126 0.0 0.0 0.00 0.00 0.00 76 1016.9
20220124030032 -5 126 0.0 0.0 0.00 0.00 0.00 74 1016.8
20220124024544 -4 126 0.0 1.6 0.00 0.00 0.00 73 1016.8
20220124023030 -3 7 0.0 4.8 0.00 0.00 0.00 71 1017.2
20220124021550 -3 19 1.6 14.5 0.00 0.00 0.00 70 1016.9
20220124020057 -2 18 0.0 12.9 0.00 0.00 0.00 70 1017.0
20220124014530 -2 30 3.2 12.9 0.00 0.00 0.00 72 1016.8
20220124013039 -2 357 3.2 9.7 0.00 0.00 0.00 72 1017.0
20220124011620 -2 319 1.6 6.4 0.00 0.00 0.00 71 1017.0
20220124010032 -2 321 0.0 9.7 0.00 0.00 0.00 72 1017.2
20220124004524 -2 346 0.0 6.4 0.00 0.00 0.00 71 1016.8
20220124003040 -2 24 0.0 9.7 0.00 0.00 0.00 71 1016.7
20220124001535 -2 327 1.6 8.0 0.00 0.00 0.00 71 1016.7
20220124000053 -2 306 3.2 11.3 0.00 0.00 0.00 71 1016.4
20220123234624 -2 335 1.6 11.3 0.00 0.00 0.00 71 1016.1
20220123233041 -2 287 3.2 12.9 0.00 0.00 0.00 71 1015.9
20220123231543 -1 355 4.8 12.9 0.00 0.00 0.00 71 1015.7
20220123230025 -1 329 4.8 19.3 0.00 0.00 0.00 70 1015.5
20220123224528 -1 309 4.8 11.3 0.00 0.00 0.00 70 1015.2
20220123223032 -1 319 8.0 22.5 0.00 0.00 0.00 70 1015.0
20220123221547 -1 62 6.4 17.7 0.00 0.00 0.00 70 1015.0
20220123220036 0 360 4.8 22.5 0.00 0.00 0.00 69 1014.8
20220123214521 0 333 6.4 19.3 0.00 0.00 0.00 67 1014.6
20220123213050 0 333 11.3 25.7 0.00 0.00 0.00 66 1014.4
20220123211536 1 321 8.0 17.7 0.00 0.00 0.00 65 1014.1
20220123210018 1 13 9.7 24.1 0.00 0.00 0.00 66 1013.8
20220123204516 1 7 9.7 24.1 0.00 0.00 0.00 68 1013.7
20220123203025 1 27 12.9 25.7 0.00 0.00 0.00 67 1013.4
20220123201518 3 330 4.8 14.5 0.00 0.00 0.00 64 1013.0
20220123200042 3 304 4.8 19.3 0.00 0.00 0.00 65 1012.7
20220123194520 3 300 6.4 20.9 0.00 0.00 0.00 64 1012.4
20220123193015 3 269 1.6 16.1 0.00 0.00 0.00 63 1012.3
20220123191551 3 347 9.7 29.0 0.00 0.00 0.00 63 1012.0
20220123190115 3 354 6.4 20.9 0.00 0.00 0.00 64 1012.0
20220123184524 3 304 8.0 25.7 0.00 0.00 0.00 62 1012.0
20220123183058 3 324 4.8 14.5 0.00 0.00 0.00 64 1012.0
20220123181502 2 281 4.8 17.7 0.00 0.00 0.00 64 1012.2
20220123180213 2 250 9.7 19.3 0.00 0.00 0.00 65 1012.1
20220123174613 1 254 3.2 14.5 0.00 0.00 0.00 67 1012.5
20220123173123 1 248 4.8 16.1 0.00 0.00 0.00 68 1012.7
20220123171558 1 250 4.8 14.5 0.00 0.00 0.00 68 1012.9
20220123170259 1 235 4.8 17.7 0.00 0.00 0.00 67 1013.3
20220123164605 1 264 8.0 19.3 0.00 0.00 0.00 67 1013.3
20220123163132 1 214 6.4 19.3 0.00 0.00 0.00 66 1013.4
20220123161608 0 256 4.8 16.1 0.00 0.00 0.00 66 1013.5
20220123160051 0 219 4.8 17.7 0.00 0.00 0.00 66 1013.8
20220123154618 0 242 9.7 19.3 0.00 0.00 0.00 68 1013.8
20220123153057 0 198 6.4 16.1 0.00 0.00 0.00 69 1013.8
20220123151601 -1 152 3.2 6.4 0.00 0.00 0.00 71 1013.9
20220123150003 -1 226 3.2 20.9 0.00 0.00 0.00 71 1014.0
20220123144505 -1 216 9.7 20.9 0.00 0.00 0.00 71 1013.8
20220123143114 -1 200 11.3 19.3 0.00 0.00 0.00 72 1014.0
20220123141629 -2 200 9.7 16.1 0.00 0.00 0.00 74 1014.4
20220123140158 -2 203 9.7 17.7 0.00 0.00 0.00 75 1014.5
20220123134725 -2 219 8.0 16.1 0.00 0.00 0.00 75 1015.1
20220123133200 -2 221 8.0 17.7 0.00 0.00 0.00 75 1015.3
20220123131559 -3 213 9.7 17.7 0.00 0.00 0.00 76 1015.5
20220123130140 -3 229 6.4 14.5 0.00 0.00 0.00 76 1016.2
20220123124554 -3 208 6.4 14.5 0.00 0.00 0.00 76 1016.4
20220123123043 -3 203 3.2 8.0 0.00 0.00 0.00 77 1016.9
20220123121539 -3 197 3.2 8.0 0.00 0.00 0.00 77 1017.0
20220123120046 -3 179 4.8 9.7 0.00 0.00 0.00 78 1017.0
20220123114528 -3 206 1.6 6.4 0.00 0.00 0.00 78 1017.6
20220123113034 -3 223 3.2 6.4 0.00 0.00 0.00 77 1017.6